[[{"header":{"parameterUnit":"m.s-1","parameterCategory":2,"la1":30.2991,"la2":30.254,"lo1":-89.0895,"lo2":-89.0444,"dy":0.0017,"dx":0.0017,"nx":28,"ny":28,"refTime":"2024-03-25T03:00:00:Z","depth":"0","parameterNumber":2,"parameterNumberName":"U-component_of_CURRENTS"},"data":[0,0,0,0,0,0,0,0,0,0,0,0,0,0,0,0,0,0,0,0,0,0,0,0,0,0,0,0,0,0,0,0,0,0,0,0,0,0,0,0,0,0,0,0,0,0,0,0,0,0,0,0,0,0,0,0,0,0,-0.2155,-0.2154,0,-0.2087,-0.2086,-0.2085,-0.2057,-0.2057,-0.2058,-0.2059,-0.1915,-0.1911,-0.1906,0,0,0,0,0,0,0,0,0,0,0,0,0,-0.2166,-0.2166,-0.2155,-0.2154,-0.2154,-0.2087,-0.2086,-0.2084,-0.2057,-0.2057,-0.2058,-0.2059,-0.1916,-0.1911,-0.1906,0,0,0,0,0,0,0,0,0,0,0,0,0,-0.2132,-0.2166,-0.2155,-0.2136,-0.2134,-0.2088,-0.2086,-0.2084,-0.2056,-0.2057,-0.2058,-0.2059,-0.1918,-0.1912,-0.1905,-0.1846,0,0,-0.1885,-0.1882,0,0,0,0,0,0,0,0,-0.2134,-0.2131,-0.2139,-0.2137,-0.2135,-0.2086,-0.2038,-0.2003,-0.2056,-0.208,-0.2059,-0.206,-0.1968,-0.1957,-0.1936,-0.184,-0.1833,-0.1884,-0.188,-0.1878,-0.1876,0,0,0,0,0,0,0,-0.2136,-0.2133,-0.2123,-0.2139,-0.2136,-0.2099,-0.2095,-0.203,-0.2014,-0.2078,-0.2077,-0.2078,-0.1965,-0.1943,-0.1932,-0.1831,-0.1885,-0.1879,-0.1875,-0.1872,-0.1727,-0.1727,0,0,0,0,0,0,-0.2159,-0.2136,-0.2125,-0.2121,-0.2142,-0.2099,-0.2094,-0.2096,-0.2017,-0.2008,-0.2077,-0.2077,-0.1953,-0.194,-0.1927,-0.1904,-0.1878,-0.1871,-0.1868,-0.1726,-0.1727,-0.1727,0,0,0,0,0,0,-0.2159,-0.2158,-0.2128,-0.2131,-0.2125,-0.2099,-0.21,-0.2095,-0.2078,-0.2018,-0.2006,-0.2068,-0.1954,-0.1936,-0.1888,-0.1897,-0.1869,-0.1863,-0.1726,-0.1727,-0.1727,-0.1825,0,0,0,0,0,0,-0.216,-0.2159,-0.2155,-0.2133,-0.2126,-0.2121,-0.21,-0.2093,-0.2079,-0.2078,-0.2005,-0.1993,-0.1953,-0.1898,-0.1881,-0.1887,-0.1857,-0.1726,-0.1726,-0.1727,-0.1822,-0.1828,-0.1834,0,0,0,0,0,-0.216,-0.2162,-0.2156,-0.2154,-0.2126,-0.2122,-0.2115,-0.2095,-0.2078,-0.2079,-0.2031,-0.1995,-0.1887,-0.1893,-0.1873,-0.1877,-0.1726,-0.1726,-0.1727,-0.1819,-0.1827,-0.1834,0,0,0,0,0,0,-0.2155,-0.2159,-0.2152,-0.2151,-0.2147,-0.212,-0.2111,-0.2096,-0.2056,-0.2048,-0.1988,-0.1972,-0.1937,-0.1886,-0.1894,-0.1835,-0.1803,-0.1799,-0.188,-0.1887,-0.1893,-0.1901,-0.1852,0,0,0,0,0,-0.2156,-0.2161,-0.2158,-0.2155,-0.2156,-0.213,-0.212,-0.2112,-0.2081,-0.2064,-0.2017,-0.1962,-0.1918,-0.1889,-0.1842,-0.1797,-0.1768,-0.1788,-0.1795,-0.18,-0.1794,-0.1765,-0.1769,-0.1727,-0.1727,-0.1727,0,0,-0.215,-0.2153,-0.2153,-0.2155,-0.2142,-0.215,-0.2126,-0.2121,-0.2122,-0.2051,-0.2024,-0.1979,-0.1912,-0.188,-0.1859,-0.184,-0.1803,-0.1801,-0.1806,-0.1796,-0.1765,-0.177,-0.1773,-0.1727,-0.1727,-0.1727,0,0,-0.2154,-0.2149,-0.216,-0.2166,-0.2167,-0.2157,-0.2162,-0.2143,-0.2132,-0.2103,-0.206,-0.2022,-0.1945,-0.191,-0.1879,-0.1881,-0.1841,-0.1868,-0.19,-0.1874,-0.1877,-0.188,-0.188,-0.1882,-0.1868,-0.1868,-0.1868,0,-0.2145,-0.2162,-0.216,-0.2178,-0.2184,-0.2167,-0.2183,-0.2168,-0.2136,-0.2121,-0.2109,-0.201,-0.1959,-0.1918,-0.1929,-0.1896,-0.1884,-0.1883,-0.1884,-0.1886,-0.1887,-0.1886,-0.1887,-0.1873,-0.1872,-0.1872,-0.1871,0,-0.216,-0.2179,-0.2187,-0.2208,-0.2213,-0.2223,-0.2222,-0.2215,-0.2195,-0.2172,-0.2134,-0.2072,-0.2013,-0.1998,-0.1962,-0.1943,-0.1936,-0.1904,-0.1873,-0.1898,-0.1895,-0.1894,-0.188,-0.1878,-0.1876,-0.1875,0,0,-0.2129,-0.2187,-0.219,-0.2214,-0.2232,-0.2239,-0.2249,-0.2246,-0.2243,-0.2207,-0.2191,-0.2126,-0.2092,-0.2053,-0.2009,-0.1983,-0.1993,-0.1953,-0.1949,-0.1967,-0.196,-0.1971,-0.1971,-0.1968,-0.1967,-0.1967,-0.1968,0,-0.2139,-0.2189,-0.2212,-0.2252,-0.2276,-0.2281,-0.2293,-0.2287,-0.2268,-0.2249,-0.2191,-0.2153,-0.2115,-0.2089,-0.2063,-0.1999,-0.1989,-0.1997,-0.1919,-0.1917,-0.1935,-0.1969,-0.1983,-0.1985,-0.1966,-0.1966,-0.1966,0,-0.2138,-0.2178,-0.2226,-0.2286,-0.2296,-0.231,-0.2323,-0.2333,-0.2309,-0.2295,-0.2255,-0.2209,-0.216,-0.2126,-0.2053,-0.2063,-0.2022,-0.1981,-0.1979,-0.1948,-0.1925,-0.1948,-0.1984,-0.1981,-0.1964,-0.1964,-0.1964,0,-0.2109,-0.2183,-0.2224,-0.2243,-0.2303,-0.2315,-0.2333,-0.233,-0.2337,-0.2314,-0.2308,-0.225,-0.2212,-0.2153,-0.2072,-0.2064,-0.1999,-0.1972,-0.1952,-0.1953,-0.1925,-0.1925,-0.1954,-0.1932,-0.1932,-0.1932,-0.1932,0,-0.2106,-0.2136,-0.2214,-0.2233,-0.2269,-0.2311,-0.2329,-0.2341,-0.235,-0.2357,-0.2323,-0.2306,-0.2215,-0.2164,-0.2096,-0.2029,-0.2019,-0.1965,-0.1951,-0.1963,-0.1966,-0.1927,-0.1911,-0.1932,-0.1932,-0.1932,-0.1932,0,-0.2061,-0.2118,-0.216,-0.2233,-0.2255,-0.227,-0.2326,-0.2343,-0.2363,-0.2373,-0.2368,-0.2338,-0.2278,-0.22,-0.2101,-0.206,-0.1975,-0.1968,-0.2005,-0.1995,-0.1977,-0.1966,-0.1907,-0.189,-0.1954,-0.1954,-0.1955,0,-0.2042,-0.2063,-0.214,-0.2161,-0.219,-0.2232,-0.2265,-0.2323,-0.235,-0.2387,-0.239,-0.2349,-0.2305,-0.2191,-0.2107,-0.202,-0.1976,-0.1996,-0.1974,-0.199,-0.1966,-0.1919,-0.1906,-0.1989,-0.199,-0.199,-0.199,0,-0.1984,-0.2006,-0.2038,-0.2094,-0.2134,-0.2186,-0.224,-0.2267,-0.2344,-0.235,-0.2353,-0.2323,-0.2274,-0.2184,-0.2102,-0.2044,-0.1988,-0.2002,-0.1996,-0.1982,-0.1953,-0.1925,-0.1995,-0.1994,-0.1993,-0.1993,-0.1993,-0.1993,-0.1909,-0.1915,-0.1954,-0.1996,-0.2055,-0.2101,-0.2054,-0.2134,-0.2146,-0.2082,-0.2245,-0.2132,-0.2211,-0.2088,-0.2061,-0.2045,-0.1989,-0.2012,-0.1996,-0.1947,-0.1931,-0.2027,-0.2019,-0.2018,-0.2018,-0.2018,-0.2018,0,-0.1804,-0.1822,-0.1858,-0.1886,-0.1887,-0.1954,-0.1997,-0.1903,-0.1834,-0.184,-0.1819,-0.1909,-0.1959,-0.2003,-0.2077,-0.2045,-0.2003,-0.202,-0.1963,-0.1948,-0.2023,-0.2028,-0.2048,-0.2048,-0.2048,-0.2048,-0.2048,-0.2048,-0.1739,-0.1726,-0.1754,-0.1701,-0.17,-0.1576,-0.1534,-0.1447,-0.1383,-0.1252,-0.1224,-0.127,-0.1545,-0.1957,-0.206,-0.2042,-0.1983,-0.1959,-0.1926,-0.2002,-0.2,-0.1998,-0.2,-0.2015,-0.2015,-0.1845,-0.1844,-0.1843]},{"header":{"parameterUnit":"m.s-1","parameterCategory":2,"la1":30.2991,"la2":30.254,"lo1":-89.0895,"lo2":-89.0444,"dy":0.0017,"dx":0.0017,"nx":28,"ny":28,"refTime":"2024-03-25T03:00:00:Z","depth":"0","parameterNumber":3,"parameterNumberName":"V-component_of_CURRENTS"},"data":[0,0,0,0,0,0,0,0,0,0,0,0,0,0,0,0,0,0,0,0,0,0,0,0,0,0,0,0,0,0,0,0,0,0,0,0,0,0,0,0,0,0,0,0,0,0,0,0,0,0,0,0,0,0,0,0,0,0,-0.0158,-0.0157,0,-0.0104,-0.0104,-0.0103,-0.0096,-0.0097,-0.0097,-0.0098,-0.0066,-0.0065,-0.0064,0,0,0,0,0,0,0,0,0,0,0,0,0,-0.022,-0.0219,-0.0158,-0.0157,-0.0156,-0.0104,-0.0104,-0.0103,-0.0096,-0.0097,-0.0098,-0.0098,-0.0067,-0.0065,-0.0064,0,0,0,0,0,0,0,0,0,0,0,0,0,-0.0182,-0.0218,-0.0158,-0.0147,-0.0146,-0.0104,-0.0104,-0.0103,-0.0096,-0.0097,-0.0098,-0.0098,-0.0067,-0.0065,-0.0063,-0.0034,0,0,-0.0057,-0.0056,0,0,0,0,0,0,0,0,-0.0184,-0.018,-0.0149,-0.0148,-0.0146,-0.0108,-0.0114,-0.0081,-0.0096,-0.0114,-0.0098,-0.0099,-0.0082,-0.0079,-0.0066,-0.0033,-0.0031,-0.0057,-0.0056,-0.0055,-0.0054,0,0,0,0,0,0,0,-0.0187,-0.0182,-0.0136,-0.0149,-0.0147,-0.0133,-0.0129,-0.0107,-0.0094,-0.0113,-0.0112,-0.0107,-0.0081,-0.0068,-0.0065,-0.0031,-0.0057,-0.0055,-0.0054,-0.0053,0.0038,0.0039,0,0,0,0,0,0,-0.0195,-0.0184,-0.0138,-0.0135,-0.0168,-0.0132,-0.0127,-0.0119,-0.0094,-0.0091,-0.0106,-0.0107,-0.0071,-0.0068,-0.0064,-0.0022,-0.0055,-0.0053,-0.0052,0.0037,0.0039,0.004,0,0,0,0,0,0,-0.0196,-0.0191,-0.014,-0.0159,-0.0151,-0.013,-0.0121,-0.0118,-0.0108,-0.0089,-0.0086,-0.0101,-0.0072,-0.0067,-0.0038,-0.0021,-0.0052,-0.005,0.0036,0.0038,0.0039,0.0058,0,0,0,0,0,0,-0.0198,-0.0192,-0.0193,-0.0159,-0.0151,-0.0119,-0.012,-0.0116,-0.0104,-0.0104,-0.0083,-0.0081,-0.0072,-0.0041,-0.0036,-0.0019,-0.0049,0.0034,0.0036,0.0039,0.0056,0.0061,0.0064,0,0,0,0,0,-0.0201,-0.0202,-0.0193,-0.0188,-0.0151,-0.0119,-0.0113,-0.0101,-0.0103,-0.0096,-0.0076,-0.0082,-0.0024,-0.0038,-0.0033,-0.0015,0.0033,0.0036,0.0038,0.0054,0.006,0.0064,0,0,0,0,0,0,-0.0235,-0.0201,-0.019,-0.0183,-0.0153,-0.0118,-0.0115,-0.01,-0.0078,-0.0082,-0.0065,-0.006,-0.0029,-0.0021,-0.0038,0.0019,0.0003,0.0007,0.0014,0.0019,0.0023,0.0011,-0.0047,0,0,0,0,0,-0.024,-0.0231,-0.0193,-0.0187,-0.0174,-0.0143,-0.013,-0.0117,-0.0091,-0.0083,-0.0063,-0.004,-0.001,0.0002,0.0025,0.0058,0.0071,0.0074,0.0078,0.0081,0.0077,0.0118,0.0125,0.0049,0.0049,0.0049,0,0,-0.0255,-0.0233,-0.023,-0.0194,-0.0173,-0.0152,-0.0138,-0.0119,-0.0098,-0.0082,-0.0054,-0.0027,0.0002,0.0039,0.0054,0.0045,0.0113,0.0084,0.0087,0.0081,0.0122,0.0129,0.0135,0.0051,0.005,0.005,0,0,-0.0279,-0.0256,-0.0258,-0.0229,-0.0195,-0.0166,-0.016,-0.0119,-0.01,-0.0064,-0.0042,-0.0002,0.0032,0.0068,0.0087,0.0129,0.0132,0.0134,0.0146,0.0187,0.0193,0.0198,0.0235,0.0243,0.0136,0.0136,0.0136,0,-0.0302,-0.0291,-0.0253,-0.0241,-0.0222,-0.0173,-0.0164,-0.0128,-0.0081,-0.0057,-0.006,0.0024,0.0048,0.0109,0.0125,0.0138,0.0156,0.0123,0.0191,0.0197,0.0202,0.0238,0.0247,0.0138,0.0137,0.0137,0.0137,0,-0.0322,-0.031,-0.0307,-0.0272,-0.0241,-0.0225,-0.0166,-0.013,-0.01,-0.0063,-0.0001,0.0047,0.0095,0.0117,0.0133,0.0193,0.0193,0.019,0.0175,0.0211,0.0246,0.0256,0.0139,0.0139,0.0138,0.0138,0,0,-0.0383,-0.0335,-0.0334,-0.0322,-0.0256,-0.0235,-0.0183,-0.0123,-0.0088,-0.0033,0.0014,0.0084,0.0114,0.0139,0.0177,0.0217,0.0281,0.0218,0.022,0.0247,0.0369,0.0436,0.0452,0.0287,0.0289,0.029,0.0381,0,-0.0414,-0.0416,-0.0365,-0.0347,-0.0342,-0.0261,-0.0214,-0.0148,-0.0087,-0.0024,0.0048,0.0101,0.0122,0.0151,0.02,0.0264,0.0305,0.0256,0.0335,0.0338,0.0387,0.0465,0.0583,0.0681,0.039,0.0392,0.0393,0,-0.0454,-0.0447,-0.045,-0.0388,-0.0374,-0.0344,-0.0255,-0.0205,-0.0092,-0.0045,0.0033,0.0093,0.0184,0.0183,0.0307,0.0274,0.0318,0.0361,0.0365,0.0424,0.0422,0.0597,0.0708,0.0847,0.0407,0.0406,0.0405,0,-0.0537,-0.05,-0.0508,-0.0489,-0.0412,-0.0382,-0.0331,-0.0223,-0.0172,-0.0058,-0.0003,0.0103,0.017,0.0241,0.0351,0.0325,0.048,0.0453,0.0555,0.0559,0.0674,0.0687,0.0924,0.0525,0.0525,0.0525,0.0525,0,-0.0596,-0.0596,-0.055,-0.0553,-0.0539,-0.0455,-0.0408,-0.0335,-0.0222,-0.0138,-0.0028,0.0075,0.0187,0.0302,0.0365,0.0514,0.0496,0.0578,0.0599,0.0686,0.0698,0.0833,0.0851,0.0528,0.0528,0.0527,0.0526,0,-0.0685,-0.0658,-0.0662,-0.0603,-0.0583,-0.0578,-0.0473,-0.0429,-0.0307,-0.019,-0.015,0.0054,0.0235,0.0352,0.0497,0.0552,0.0753,0.0709,0.0807,0.0839,0.1049,0.1062,0.123,0.1269,0.0836,0.0839,0.0841,0,-0.0729,-0.0748,-0.0723,-0.0732,-0.0707,-0.0674,-0.0638,-0.0506,-0.043,-0.0177,-0.0114,0.0103,0.0318,0.0569,0.0711,0.0861,0.0886,0.1007,0.0981,0.1111,0.1139,0.11,0.1115,0.1142,0.1147,0.115,0.1153,0,-0.0806,-0.0803,-0.0807,-0.0842,-0.0827,-0.078,-0.0699,-0.0641,-0.0438,-0.0278,-0.0001,0.0201,0.0516,0.0826,0.1011,0.1068,0.1122,0.1082,0.1209,0.1405,0.1387,0.1419,0.1016,0.1185,0.1181,0.1179,0.1177,0.1176,-0.0856,-0.0892,-0.091,-0.0934,-0.0922,-0.0853,-0.0776,-0.0628,-0.0447,-0.0118,0.008,0.0503,0.0905,0.1238,0.1303,0.1517,0.1374,0.1578,0.1583,0.153,0.1583,0.1247,0.1438,0.1436,0.1435,0.1433,0.1432,0,-0.0911,-0.0946,-0.0992,-0.0988,-0.0969,-0.0932,-0.0785,-0.062,-0.0355,-0.0042,0.0295,0.0997,0.1402,0.1679,0.1988,0.2058,0.1975,0.2063,0.2065,0.2051,0.1788,0.1822,0.2116,0.2116,0.2116,0.2116,0.2116,0.2116,-0.0939,-0.1004,-0.1029,-0.102,-0.0995,-0.0897,-0.0786,-0.05,-0.0225,0.0359,0.084,0.12,0.1708,0.2289,0.2564,0.2516,0.2521,0.2495,0.2448,0.2324,0.2279,0.2236,0.2278,0.2664,0.2664,0.273,0.2732,0.2733]}],[{"header":{"parameterUnit":"m.s-1","parameterCategory":2,"la1":30.2991,"la2":30.254,"lo1":-89.0895,"lo2":-89.0444,"dy":0.0017,"dx":0.0017,"nx":28,"ny":28,"refTime":"2024-03-25T03:00:00:Z","depth":"2","parameterNumber":2,"parameterNumberName":"U-component_of_CURRENTS"},"data":[0,0,0,0,0,0,0,0,0,0,0,0,0,0,0,0,0,0,0,0,0,0,0,0,0,0,0,0,0,0,0,0,0,0,0,0,0,0,0,0,0,0,0,0,0,0,0,0,0,0,0,0,0,0,0,0,0,0,-0.2095,-0.2095,0,-0.2029,-0.2028,-0.2027,-0.2001,-0.2001,-0.2002,-0.2002,-0.1861,-0.1857,-0.1853,0,0,0,0,0,0,0,0,0,0,0,0,0,-0.2106,-0.2106,-0.2095,-0.2095,-0.2095,-0.2029,-0.2028,-0.2026,-0.2,-0.2001,-0.2002,-0.2003,-0.1863,-0.1858,-0.1853,0,0,0,0,0,0,0,0,0,0,0,0,0,-0.2072,-0.2106,-0.2095,-0.2077,-0.2076,-0.2029,-0.2028,-0.2026,-0.2,-0.2001,-0.2002,-0.2003,-0.1865,-0.1858,-0.1852,-0.1792,0,0,-0.1832,-0.1829,0,0,0,0,0,0,0,0,-0.2074,-0.2071,-0.208,-0.2079,-0.2077,-0.2029,-0.198,-0.1946,-0.2,-0.2023,-0.2002,-0.2004,-0.1913,-0.1903,-0.1882,-0.1786,-0.178,-0.1831,-0.1827,-0.1825,-0.1823,0,0,0,0,0,0,0,-0.2077,-0.2074,-0.2064,-0.208,-0.2078,-0.2041,-0.2038,-0.1973,-0.1958,-0.2021,-0.2021,-0.2021,-0.1911,-0.1888,-0.1878,-0.1778,-0.1831,-0.1826,-0.1822,-0.1819,-0.1674,-0.1674,0,0,0,0,0,0,-0.2099,-0.2076,-0.2066,-0.2062,-0.2084,-0.2041,-0.2037,-0.2039,-0.1961,-0.1952,-0.202,-0.202,-0.1899,-0.1886,-0.1873,-0.1851,-0.1825,-0.1818,-0.1815,-0.1674,-0.1674,-0.1674,0,0,0,0,0,0,-0.21,-0.2099,-0.2069,-0.2072,-0.2066,-0.2041,-0.2043,-0.2037,-0.2021,-0.1962,-0.195,-0.2012,-0.1899,-0.1882,-0.1834,-0.1844,-0.1816,-0.181,-0.1674,-0.1674,-0.1674,-0.1773,0,0,0,0,0,0,-0.21,-0.2099,-0.2096,-0.2073,-0.2067,-0.2062,-0.2042,-0.2035,-0.2022,-0.2021,-0.195,-0.1938,-0.1899,-0.1845,-0.1828,-0.1834,-0.1804,-0.1674,-0.1674,-0.1674,-0.1769,-0.1776,-0.1782,0,0,0,0,0,-0.2101,-0.2102,-0.2096,-0.2095,-0.2068,-0.2063,-0.2056,-0.2037,-0.2021,-0.2023,-0.1976,-0.1941,-0.1834,-0.1839,-0.182,-0.1824,-0.1674,-0.1674,-0.1674,-0.1767,-0.1775,-0.1782,0,0,0,0,0,0,-0.2096,-0.2099,-0.2093,-0.2092,-0.2088,-0.2062,-0.2053,-0.2038,-0.2,-0.1992,-0.1933,-0.1918,-0.1883,-0.1833,-0.184,-0.1783,-0.175,-0.1746,-0.1827,-0.1834,-0.184,-0.1848,-0.1799,0,0,0,0,0,-0.2097,-0.2102,-0.2099,-0.2096,-0.2098,-0.2072,-0.2062,-0.2055,-0.2024,-0.2009,-0.1962,-0.1907,-0.1864,-0.1836,-0.1789,-0.1744,-0.1716,-0.1736,-0.1742,-0.1748,-0.1741,-0.1712,-0.1716,-0.1675,-0.1675,-0.1675,0,0,-0.2091,-0.2094,-0.2094,-0.2096,-0.2084,-0.2092,-0.2068,-0.2064,-0.2065,-0.1995,-0.1969,-0.1925,-0.1858,-0.1827,-0.1806,-0.1787,-0.175,-0.1748,-0.1754,-0.1743,-0.1713,-0.1717,-0.1721,-0.1675,-0.1675,-0.1675,0,0,-0.2095,-0.2091,-0.2102,-0.2107,-0.2109,-0.2099,-0.2104,-0.2086,-0.2075,-0.2047,-0.2005,-0.1967,-0.1891,-0.1857,-0.1825,-0.1828,-0.1788,-0.1815,-0.1847,-0.1821,-0.1824,-0.1827,-0.1827,-0.1829,-0.1815,-0.1815,-0.1815,0,-0.2087,-0.2104,-0.2102,-0.212,-0.2126,-0.2109,-0.2125,-0.2111,-0.2079,-0.2065,-0.2054,-0.1956,-0.1905,-0.1865,-0.1876,-0.1843,-0.1831,-0.183,-0.1831,-0.1833,-0.1834,-0.1833,-0.1834,-0.182,-0.1819,-0.1819,-0.1818,0,-0.2101,-0.212,-0.2128,-0.2149,-0.2154,-0.2165,-0.2163,-0.2157,-0.2138,-0.2116,-0.2078,-0.2017,-0.1959,-0.1944,-0.1908,-0.189,-0.1883,-0.1851,-0.182,-0.1844,-0.1842,-0.1841,-0.1827,-0.1825,-0.1824,-0.1822,0,0,-0.2071,-0.2129,-0.2132,-0.2155,-0.2174,-0.218,-0.219,-0.2187,-0.2184,-0.215,-0.2135,-0.2071,-0.2037,-0.1999,-0.1955,-0.1929,-0.194,-0.1899,-0.1896,-0.1914,-0.1907,-0.1918,-0.1917,-0.1914,-0.1914,-0.1914,-0.1915,0,-0.2081,-0.2131,-0.2154,-0.2193,-0.2216,-0.2222,-0.2233,-0.2227,-0.221,-0.2191,-0.2134,-0.2097,-0.206,-0.2035,-0.2009,-0.1946,-0.1936,-0.1943,-0.1866,-0.1864,-0.1881,-0.1915,-0.1737,-0.1723,-0.1913,-0.1913,-0.1913,0,-0.2081,-0.212,-0.2167,-0.2227,-0.2236,-0.2251,-0.2264,-0.2274,-0.2251,-0.2237,-0.2198,-0.2153,-0.2105,-0.2071,-0.1999,-0.2009,-0.1969,-0.1928,-0.1926,-0.1894,-0.1871,-0.172,-0.1714,-0.1911,-0.1911,-0.1911,-0.1911,0,-0.2053,-0.2126,-0.2166,-0.2185,-0.2244,-0.2256,-0.2274,-0.2272,-0.2279,-0.2257,-0.2252,-0.2194,-0.2157,-0.2099,-0.2018,-0.2011,-0.1945,-0.1919,-0.1898,-0.1899,-0.1708,-0.1693,-0.1878,-0.1878,-0.1878,-0.1878,-0.1878,0,-0.205,-0.2079,-0.2157,-0.2175,-0.2212,-0.2253,-0.2271,-0.2283,-0.2293,-0.23,-0.2267,-0.2251,-0.216,-0.2109,-0.2042,-0.1975,-0.1966,-0.1912,-0.1897,-0.1742,-0.1731,-0.1847,-0.1844,-0.1878,-0.1878,-0.1878,-0.1878,0,-0.2006,-0.2062,-0.2104,-0.2176,-0.2198,-0.2213,-0.2269,-0.2286,-0.2307,-0.2316,-0.2312,-0.2283,-0.2224,-0.2146,-0.2047,-0.2006,-0.1935,-0.1914,-0.1759,-0.1728,-0.1908,-0.1909,-0.19,-0.19,-0.19,-0.1901,-0.1901,0,-0.1987,-0.2008,-0.2084,-0.2106,-0.2135,-0.2176,-0.2209,-0.2267,-0.2293,-0.2331,-0.2333,-0.2294,-0.2242,-0.2128,-0.1997,-0.1897,-0.194,-0.1742,-0.1693,-0.1922,-0.1908,-0.1909,-0.191,-0.1482,-0.1479,-0.1477,-0.1474,0,-0.193,-0.1952,-0.1983,-0.2039,-0.2079,-0.2131,-0.2185,-0.2211,-0.2287,-0.2283,-0.2287,-0.2249,-0.2159,-0.1954,-0.1852,-0.177,-0.1745,-0.1692,-0.1928,-0.1528,-0.1534,-0.152,-0.1532,-0.1451,-0.1453,-0.1455,-0.1456,-0.1457,-0.1856,-0.1862,-0.1901,-0.1943,-0.2001,-0.2047,-0.1997,-0.2039,-0.2035,-0.1938,-0.211,-0.1918,-0.1945,-0.1609,-0.1574,-0.1504,-0.1616,-0.1546,-0.155,-0.1558,-0.1533,-0.1541,-0.1456,-0.1458,-0.146,-0.1462,-0.1463,0,-0.1731,-0.1771,-0.1806,-0.1834,-0.1799,-0.1902,-0.194,-0.1791,-0.1658,-0.1649,-0.1566,-0.1377,-0.1302,-0.1305,-0.1163,-0.1228,-0.1163,-0.1204,-0.1103,-0.1127,-0.1149,-0.11,-0.0909,-0.0908,-0.0906,-0.0905,0,0,-0.1662,-0.1634,-0.1661,-0.1584,-0.1607,-0.1505,-0.146,-0.1272,-0.1155,-0.0915,-0.0796,-0.0917,-0.1103,-0.0888,-0.0971,-0.0896,-0.096,-0.0844,-0.1278,-0.1166,-0.1184,-0.1339,-0.1292,0,0,0,0,0]},{"header":{"parameterUnit":"m.s-1","parameterCategory":2,"la1":30.2991,"la2":30.254,"lo1":-89.0895,"lo2":-89.0444,"dy":0.0017,"dx":0.0017,"nx":28,"ny":28,"refTime":"2024-03-25T03:00:00:Z","depth":"2","parameterNumber":3,"parameterNumberName":"V-component_of_CURRENTS"},"data":[0,0,0,0,0,0,0,0,0,0,0,0,0,0,0,0,0,0,0,0,0,0,0,0,0,0,0,0,0,0,0,0,0,0,0,0,0,0,0,0,0,0,0,0,0,0,0,0,0,0,0,0,0,0,0,0,0,0,-0.0193,-0.0192,0,-0.014,-0.0139,-0.0139,-0.0132,-0.0132,-0.0133,-0.0133,-0.0102,-0.0101,-0.0099,0,0,0,0,0,0,0,0,0,0,0,0,0,-0.0255,-0.0254,-0.0193,-0.0192,-0.0192,-0.014,-0.0139,-0.0139,-0.0131,-0.0132,-0.0133,-0.0133,-0.0102,-0.0101,-0.0099,0,0,0,0,0,0,0,0,0,0,0,0,0,-0.0217,-0.0254,-0.0193,-0.0182,-0.0181,-0.014,-0.0139,-0.0138,-0.0131,-0.0132,-0.0133,-0.0134,-0.0103,-0.0101,-0.0099,-0.0071,0,0,-0.0093,-0.0092,0,0,0,0,0,0,0,0,-0.0219,-0.0215,-0.0184,-0.0183,-0.0181,-0.0143,-0.015,-0.0117,-0.0131,-0.015,-0.0133,-0.0134,-0.0117,-0.0114,-0.0102,-0.0069,-0.0068,-0.0093,-0.0091,-0.0091,-0.009,0,0,0,0,0,0,0,-0.0222,-0.0217,-0.0172,-0.0184,-0.0182,-0.0169,-0.0164,-0.0143,-0.013,-0.0148,-0.0148,-0.0142,-0.0117,-0.0104,-0.0101,-0.0067,-0.0093,-0.0091,-0.009,-0.0089,0.0001,0.0002,0,0,0,0,0,0,-0.023,-0.022,-0.0173,-0.017,-0.0203,-0.0167,-0.0162,-0.0155,-0.013,-0.0126,-0.0141,-0.0142,-0.0107,-0.0103,-0.01,-0.0058,-0.0091,-0.0089,-0.0088,-0.0,0.0001,0.0003,0,0,0,0,0,0,-0.0231,-0.0226,-0.0175,-0.0194,-0.0187,-0.0165,-0.0156,-0.0153,-0.0144,-0.0124,-0.0122,-0.0136,-0.0107,-0.0103,-0.0074,-0.0057,-0.0088,-0.0086,-0.0001,0.0,0.0002,0.0022,0,0,0,0,0,0,-0.0233,-0.0227,-0.0228,-0.0195,-0.0186,-0.0155,-0.0156,-0.0151,-0.0139,-0.0139,-0.0119,-0.0117,-0.0107,-0.0077,-0.0072,-0.0055,-0.0084,-0.0003,-0.0001,0.0002,0.002,0.0024,0.0028,0,0,0,0,0,-0.0236,-0.0238,-0.0228,-0.0223,-0.0187,-0.0155,-0.0149,-0.0136,-0.0138,-0.0131,-0.0111,-0.0117,-0.006,-0.0074,-0.0069,-0.0051,-0.0004,-0.0001,0.0001,0.0018,0.0023,0.0028,0,0,0,0,0,0,-0.027,-0.0236,-0.0225,-0.0218,-0.0189,-0.0154,-0.0151,-0.0136,-0.0114,-0.0118,-0.01,-0.0096,-0.0064,-0.0057,-0.0074,-0.0017,-0.0033,-0.0029,-0.0023,-0.0017,-0.0013,-0.0025,-0.0083,0,0,0,0,0,-0.0276,-0.0266,-0.0228,-0.0223,-0.021,-0.0178,-0.0166,-0.0152,-0.0126,-0.0118,-0.0099,-0.0076,-0.0046,-0.0034,-0.0011,0.0021,0.0034,0.0037,0.0041,0.0044,0.004,0.0081,0.0088,0.0012,0.0012,0.0011,0,0,-0.029,-0.0268,-0.0265,-0.0229,-0.0208,-0.0187,-0.0173,-0.0154,-0.0133,-0.0117,-0.0089,-0.0063,-0.0034,0.0003,0.0017,0.0009,0.0076,0.0047,0.005,0.0044,0.0085,0.0092,0.0099,0.0013,0.0013,0.0013,0,0,-0.0314,-0.0291,-0.0292,-0.0264,-0.023,-0.0201,-0.0195,-0.0154,-0.0135,-0.01,-0.0078,-0.0038,-0.0004,0.0031,0.005,0.0092,0.0095,0.0097,0.0109,0.015,0.0156,0.0162,0.0198,0.0207,0.0099,0.0099,0.0099,0,-0.0336,-0.0326,-0.0288,-0.0276,-0.0256,-0.0208,-0.0199,-0.0163,-0.0117,-0.0092,-0.0095,-0.0012,0.0012,0.0073,0.0089,0.0101,0.0119,0.0087,0.0154,0.016,0.0166,0.0201,0.0211,0.0101,0.01,0.01,0.01,0,-0.0356,-0.0345,-0.0341,-0.0306,-0.0276,-0.0259,-0.0201,-0.0165,-0.0135,-0.0098,-0.0036,0.0011,0.0059,0.0081,0.0097,0.0157,0.0157,0.0154,0.0138,0.0175,0.021,0.0219,0.0102,0.0102,0.0102,0.0101,0,0,-0.0416,-0.0368,-0.0368,-0.0356,-0.0291,-0.027,-0.0218,-0.0158,-0.0123,-0.0068,-0.0021,0.0048,0.0079,0.0103,0.0141,0.0182,0.0245,0.0182,0.0184,0.0211,0.0333,0.0397,0.0413,0.0252,0.0253,0.0254,0.0346,0,-0.0447,-0.0449,-0.0398,-0.038,-0.0375,-0.0295,-0.0249,-0.0183,-0.0122,-0.0059,0.0013,0.0066,0.0087,0.0116,0.0164,0.0228,0.0269,0.0221,0.0299,0.0302,0.0349,0.0427,0.0307,0.0385,0.0355,0.0356,0.0357,0,-0.0486,-0.0479,-0.0482,-0.0421,-0.0407,-0.0377,-0.0289,-0.024,-0.0127,-0.008,-0.0002,0.0058,0.0149,0.0148,0.0272,0.0239,0.0284,0.0326,0.033,0.0386,0.0384,0.0343,0.0403,0.0373,0.0372,0.0371,0.037,0,-0.0568,-0.0532,-0.054,-0.0522,-0.0445,-0.0415,-0.0364,-0.0257,-0.0206,-0.0092,-0.0038,0.0068,0.0135,0.0206,0.0316,0.029,0.0444,0.0418,0.0517,0.0521,0.0434,0.043,0.0491,0.0491,0.049,0.049,0.049,0,-0.0627,-0.0627,-0.0582,-0.0584,-0.0571,-0.0487,-0.0441,-0.0368,-0.0255,-0.0173,-0.0062,0.0039,0.0152,0.0266,0.033,0.0477,0.046,0.054,0.0561,0.0441,0.0437,0.0428,0.042,0.0493,0.0493,0.0492,0.0491,0,-0.0716,-0.0689,-0.0693,-0.0634,-0.0615,-0.0609,-0.0505,-0.0463,-0.0341,-0.0226,-0.0186,0.0017,0.0196,0.0314,0.0459,0.0514,0.0626,0.067,0.0531,0.0536,0.0663,0.0655,0.0788,0.0791,0.0794,0.0796,0.0798,0,-0.076,-0.0778,-0.0753,-0.0763,-0.0739,-0.0705,-0.0671,-0.0539,-0.0465,-0.0215,-0.0154,0.0061,0.0262,0.0513,0.0597,0.0731,0.0734,0.0717,0.0659,0.0694,0.07,0.0687,0.0675,0.0542,0.0542,0.0541,0.0541,0,-0.0836,-0.0832,-0.0837,-0.0872,-0.0858,-0.0813,-0.0735,-0.0678,-0.0477,-0.0334,-0.0061,0.0128,0.039,0.0545,0.0707,0.0747,0.0688,0.0722,0.0796,0.0504,0.0475,0.0477,0.047,0.0539,0.0539,0.0539,0.054,0.054,-0.0885,-0.0922,-0.094,-0.0965,-0.0954,-0.0888,-0.0816,-0.0734,-0.0577,-0.0328,-0.0103,0.0145,0.0351,0.055,0.0674,0.0726,0.0751,0.0722,0.0717,0.0713,0.0687,0.0667,0.0761,0.0762,0.0764,0.0765,0.0766,0,-0.0944,-0.0976,-0.1022,-0.102,-0.1021,-0.0967,-0.0828,-0.0768,-0.0609,-0.0372,-0.0146,0.0043,0.0246,0.0453,0.0542,0.067,0.0582,0.0671,0.0526,0.0527,0.0529,0.0489,0.0513,0.0513,0.0513,0.0513,0,0,-0.0974,-0.1041,-0.1068,-0.108,-0.1051,-0.0955,-0.085,-0.076,-0.0611,-0.0435,-0.0252,-0.0058,0.0257,0.0262,0.0406,0.0479,0.0463,0.045,0.063,0.0442,0.0442,0.0529,0.0467,0,0,0,0,0]}],[{"header":{"parameterUnit":"m.s-1","parameterCategory":2,"la1":30.2991,"la2":30.254,"lo1":-89.0895,"lo2":-89.0444,"dy":0.0017,"dx":0.0017,"nx":28,"ny":28,"refTime":"2024-03-25T03:00:00:Z","depth":"4","parameterNumber":2,"parameterNumberName":"U-component_of_CURRENTS"},"data":[0,0,0,0,0,0,0,0,0,0,0,0,0,0,0,0,0,0,0,0,0,0,0,0,0,0,0,0,0,0,0,0,0,0,0,0,0,0,0,0,0,0,0,0,0,0,0,0,0,0,0,0,0,0,0,0,0,0,-0.1098,-0.1098,0,-0.1085,-0.1084,-0.1084,-0.1096,-0.1096,-0.1097,-0.1098,-0.1044,-0.1042,-0.104,0,0,0,0,0,0,0,0,0,0,0,0,0,-0.1071,-0.1072,-0.1098,-0.1099,-0.1099,-0.1085,-0.1084,-0.1084,-0.1095,-0.1096,-0.1097,-0.1098,-0.1045,-0.1042,-0.104,0,0,0,0,0,0,0,0,0,0,0,0,0,-0.107,-0.1072,-0.1098,-0.1105,-0.1106,-0.1085,-0.1084,-0.1084,-0.1095,-0.1096,-0.1098,-0.1099,-0.1046,-0.1042,-0.1039,-0.0995,0,0,-0.1029,-0.1028,0,0,0,0,0,0,0,0,-0.107,-0.107,-0.1104,-0.1105,-0.1106,-0.1096,-0.1055,-0.1053,-0.1095,-0.1096,-0.1098,-0.1099,-0.1059,-0.1055,-0.1045,-0.0993,-0.099,-0.1029,-0.1027,-0.1026,-0.1025,0,0,0,0,0,0,0,-0.107,-0.1071,-0.109,-0.1104,-0.1105,-0.1088,-0.1089,-0.1054,-0.1068,-0.1096,-0.1098,-0.1101,-0.1059,-0.1048,-0.1044,-0.099,-0.1029,-0.1026,-0.1024,-0.1023,-0.0964,-0.0965,0,0,0,0,0,0,-0.1081,-0.1071,-0.109,-0.109,-0.1094,-0.1088,-0.1089,-0.1095,-0.1069,-0.1067,-0.11,-0.1102,-0.1053,-0.1048,-0.1042,-0.107,-0.1026,-0.1023,-0.1021,-0.0964,-0.0964,-0.0965,0,0,0,0,0,0,-0.108,-0.1082,-0.1091,-0.1082,-0.1083,-0.1088,-0.1094,-0.1094,-0.111,-0.1073,-0.107,-0.1118,-0.1054,-0.1047,-0.1039,-0.1065,-0.1021,-0.1018,-0.0963,-0.0964,-0.0965,-0.1073,0,0,0,0,0,0,-0.1079,-0.1082,-0.1096,-0.1083,-0.1084,-0.1104,-0.1093,-0.1093,-0.111,-0.1112,-0.1087,-0.1082,-0.1055,-0.1044,-0.1036,-0.106,-0.1016,-0.0963,-0.0964,-0.0964,-0.1069,-0.1077,-0.1084,0,0,0,0,0,-0.1078,-0.1093,-0.1096,-0.1099,-0.11,-0.1106,-0.1105,-0.1109,-0.111,-0.1125,-0.1108,-0.1084,-0.1043,-0.1042,-0.1032,-0.1056,-0.0963,-0.0963,-0.0964,-0.1065,-0.1075,-0.1084,0,0,0,0,0,0,-0.1085,-0.1095,-0.1099,-0.1116,-0.1123,-0.111,-0.1123,-0.1121,-0.1118,-0.1123,-0.1087,-0.1081,-0.1084,-0.1048,-0.1048,-0.1038,-0.0999,-0.0998,-0.1079,-0.1088,-0.1095,-0.11,-0.1013,0,0,0,0,0,-0.1093,-0.1112,-0.1114,-0.113,-0.1137,-0.1133,-0.1137,-0.1142,-0.1134,-0.1135,-0.1119,-0.1094,-0.1073,-0.1066,-0.104,-0.1031,-0.1003,-0.1038,-0.1046,-0.1053,-0.1048,-0.1029,-0.1035,-0.0968,-0.0968,-0.0968,0,0,-0.1101,-0.1109,-0.112,-0.1134,-0.1138,-0.1154,-0.1139,-0.1157,-0.1174,-0.1126,-0.1146,-0.1121,-0.1076,-0.1076,-0.1073,-0.1054,-0.1062,-0.1054,-0.1061,-0.1051,-0.103,-0.1037,-0.1043,-0.0968,-0.0968,-0.0968,0,0,-0.1118,-0.1134,-0.1154,-0.1167,-0.1185,-0.1183,-0.1196,-0.12,-0.121,-0.1217,-0.119,-0.1183,-0.1151,-0.113,-0.1111,-0.1138,-0.1103,-0.1133,-0.1178,-0.1161,-0.1167,-0.1171,-0.1171,-0.1174,-0.1138,-0.1138,-0.1138,0,-0.1127,-0.1153,-0.116,-0.1183,-0.1201,-0.1202,-0.1228,-0.1233,-0.1235,-0.1241,-0.1241,-0.1202,-0.1175,-0.1162,-0.118,-0.1158,-0.1146,-0.1154,-0.1173,-0.1177,-0.118,-0.1178,-0.118,-0.1144,-0.1143,-0.1142,-0.1142,0,-0.1151,-0.1184,-0.1199,-0.1231,-0.125,-0.1275,-0.1287,-0.1307,-0.1317,-0.1314,-0.1319,-0.1284,-0.1261,-0.1256,-0.1228,-0.1234,-0.1221,-0.1189,-0.1157,-0.1194,-0.1189,-0.119,-0.1151,-0.1149,-0.1148,-0.1146,0,0,-0.1135,-0.1204,-0.1212,-0.1243,-0.1282,-0.1298,-0.1333,-0.1355,-0.1378,-0.138,-0.1396,-0.1371,-0.1357,-0.1332,-0.1301,-0.1287,-0.1313,-0.1257,-0.1254,-0.127,-0.1294,-0.1235,-0.123,-0.1291,-0.1292,-0.1292,-0.1293,0,-0.1152,-0.121,-0.124,-0.13,-0.1329,-0.1357,-0.139,-0.1413,-0.1427,-0.1443,-0.1414,-0.1415,-0.1385,-0.1384,-0.1368,-0.1317,-0.1316,-0.1316,-0.1243,-0.1241,-0.1195,-0.1228,-0.1292,-0.1294,-0.1294,-0.1294,-0.1294,0,-0.1155,-0.1199,-0.1262,-0.1342,-0.1359,-0.1395,-0.1449,-0.148,-0.1499,-0.1511,-0.1508,-0.1486,-0.147,-0.1437,-0.1388,-0.1393,-0.1357,-0.1319,-0.1317,-0.1219,-0.1182,-0.1239,-0.1295,-0.1294,-0.1294,-0.1294,-0.1294,0,-0.1121,-0.1211,-0.1266,-0.1293,-0.1377,-0.1415,-0.1457,-0.1496,-0.1523,-0.1551,-0.1567,-0.1545,-0.1534,-0.1486,-0.1418,-0.1411,-0.1356,-0.1331,-0.1247,-0.1244,-0.125,-0.1244,-0.1301,-0.1301,-0.1301,-0.1301,-0.1301,0,-0.1109,-0.1156,-0.1262,-0.1288,-0.1355,-0.1418,-0.1477,-0.1516,-0.1563,-0.1584,-0.16,-0.1593,-0.1545,-0.1505,-0.1443,-0.1348,-0.1379,-0.1258,-0.1236,-0.1298,-0.1298,-0.1252,-0.1246,-0.1301,-0.1301,-0.1301,-0.1301,0,-0.105,-0.1124,-0.1188,-0.1297,-0.1338,-0.1379,-0.1485,-0.1516,-0.1582,-0.1608,-0.162,-0.1631,-0.1579,-0.1525,-0.1441,-0.1374,-0.1292,-0.1252,-0.1343,-0.1325,-0.1192,-0.1191,-0.1166,-0.1163,-0.1162,-0.116,-0.1159,0,-0.1022,-0.1051,-0.1174,-0.121,-0.1262,-0.1344,-0.1395,-0.1499,-0.1527,-0.1607,-0.1601,-0.1598,-0.1581,-0.1415,-0.138,-0.1277,-0.1244,-0.1221,-0.1188,-0.1195,-0.1176,-0.1179,-0.1181,-0.1156,-0.1155,-0.1155,-0.1154,0,-0.0951,-0.1,-0.1044,-0.112,-0.1187,-0.1252,-0.1334,-0.135,-0.1455,-0.1559,-0.1529,-0.149,-0.1435,-0.1352,-0.1288,-0.1209,-0.1245,-0.1201,-0.1204,-0.1173,-0.1183,-0.1166,-0.1171,-0.1148,-0.1149,-0.115,-0.115,0,-0.0882,-0.0888,-0.0944,-0.0993,-0.1075,-0.1095,-0.1172,-0.1216,-0.1267,-0.1388,-0.1378,-0.1374,-0.142,-0.1318,-0.1253,-0.118,-0.1148,-0.1103,-0.111,-0.1117,-0.1095,-0.1101,-0.1024,0,0,0,0,0,-0.08,-0.0779,-0.0815,-0.0841,-0.0915,-0.0948,-0.1092,-0.1172,-0.131,-0.126,-0.1315,-0.1264,-0.1193,-0.1195,-0.1097,-0.12,-0.1129,-0.1083,-0.1076,-0.1113,-0.112,-0.1096,0,0,0,0,0,0,-0.0736,-0.0749,-0.0754,-0.069,-0.0674,-0.0729,-0.0806,-0.0913,-0.0906,-0.1061,-0.102,-0.1164,-0.1092,-0.1179,-0.1044,-0.1048,-0.1019,-0.1115,-0.1112,-0.1109,-0.1115,-0.1121,-0.1099,0,0,0,0,0]},{"header":{"parameterUnit":"m.s-1","parameterCategory":2,"la1":30.2991,"la2":30.254,"lo1":-89.0895,"lo2":-89.0444,"dy":0.0017,"dx":0.0017,"nx":28,"ny":28,"refTime":"2024-03-25T03:00:00:Z","depth":"4","parameterNumber":3,"parameterNumberName":"V-component_of_CURRENTS"},"data":[0,0,0,0,0,0,0,0,0,0,0,0,0,0,0,0,0,0,0,0,0,0,0,0,0,0,0,0,0,0,0,0,0,0,0,0,0,0,0,0,0,0,0,0,0,0,0,0,0,0,0,0,0,0,0,0,0,0,-0.0321,-0.0321,0,-0.0294,-0.0294,-0.0294,-0.03,-0.03,-0.0301,-0.0301,-0.0298,-0.0298,-0.0297,0,0,0,0,0,0,0,0,0,0,0,0,0,-0.0359,-0.0358,-0.0321,-0.0321,-0.0321,-0.0294,-0.0294,-0.0294,-0.03,-0.0301,-0.0301,-0.0302,-0.0299,-0.0298,-0.0297,0,0,0,0,0,0,0,0,0,0,0,0,0,-0.0339,-0.0358,-0.0321,-0.032,-0.032,-0.0294,-0.0294,-0.0294,-0.03,-0.0301,-0.0301,-0.0302,-0.0299,-0.0298,-0.0297,-0.0278,0,0,-0.0295,-0.0295,0,0,0,0,0,0,0,0,-0.034,-0.0337,-0.0321,-0.032,-0.032,-0.0301,-0.0306,-0.0289,-0.03,-0.0308,-0.0301,-0.0302,-0.0301,-0.03,-0.0293,-0.0278,-0.0278,-0.0295,-0.0294,-0.0294,-0.0294,0,0,0,0,0,0,0,-0.0341,-0.0338,-0.0311,-0.032,-0.032,-0.0315,-0.0313,-0.0303,-0.0301,-0.0307,-0.0307,-0.0304,-0.0301,-0.0294,-0.0293,-0.0278,-0.0295,-0.0294,-0.0294,-0.0293,-0.0237,-0.0236,0,0,0,0,0,0,-0.0344,-0.034,-0.0312,-0.031,-0.0331,-0.0313,-0.0311,-0.0307,-0.0301,-0.03,-0.0303,-0.0304,-0.0295,-0.0294,-0.0293,-0.0262,-0.0294,-0.0293,-0.0293,-0.0238,-0.0236,-0.0235,0,0,0,0,0,0,-0.0345,-0.0342,-0.0313,-0.0324,-0.032,-0.0312,-0.0307,-0.0306,-0.0305,-0.0297,-0.0298,-0.0304,-0.0296,-0.0294,-0.0278,-0.0262,-0.0293,-0.0292,-0.0239,-0.0237,-0.0236,-0.0204,0,0,0,0,0,0,-0.0346,-0.0342,-0.0345,-0.0324,-0.032,-0.0302,-0.0306,-0.0305,-0.0301,-0.0302,-0.0298,-0.0298,-0.0296,-0.0279,-0.0277,-0.0262,-0.0292,-0.024,-0.0238,-0.0236,-0.0206,-0.0202,-0.0198,0,0,0,0,0,-0.0347,-0.035,-0.0346,-0.0343,-0.0322,-0.0301,-0.0299,-0.0295,-0.03,-0.0298,-0.0288,-0.0299,-0.0266,-0.0277,-0.0275,-0.0259,-0.0241,-0.0239,-0.0236,-0.0208,-0.0203,-0.0198,0,0,0,0,0,0,-0.0373,-0.035,-0.0345,-0.0342,-0.0324,-0.0303,-0.0303,-0.0296,-0.0286,-0.0291,-0.0285,-0.0283,-0.0263,-0.0264,-0.0277,-0.0237,-0.0255,-0.0253,-0.0235,-0.0229,-0.0225,-0.0227,-0.0291,0,0,0,0,0,-0.0377,-0.0372,-0.0347,-0.0346,-0.0337,-0.032,-0.0313,-0.0307,-0.0292,-0.0289,-0.028,-0.0269,-0.0249,-0.0243,-0.0231,-0.0209,-0.0199,-0.0197,-0.0193,-0.0189,-0.0188,-0.0148,-0.014,-0.0228,-0.0228,-0.0228,0,0,-0.039,-0.0374,-0.0374,-0.035,-0.0339,-0.0323,-0.0318,-0.0308,-0.0293,-0.029,-0.0271,-0.0255,-0.024,-0.0213,-0.0204,-0.0213,-0.0158,-0.0186,-0.0183,-0.0185,-0.0145,-0.0137,-0.0129,-0.0226,-0.0226,-0.0227,0,0,-0.0405,-0.0394,-0.0394,-0.0375,-0.0354,-0.0334,-0.0331,-0.0305,-0.0294,-0.0269,-0.0257,-0.0227,-0.021,-0.0183,-0.017,-0.0133,-0.0136,-0.0135,-0.0113,-0.0074,-0.0066,-0.006,-0.0033,-0.0024,-0.0131,-0.0131,-0.0131,0,-0.0423,-0.0415,-0.0391,-0.038,-0.0369,-0.0339,-0.0331,-0.0307,-0.0277,-0.0259,-0.0264,-0.0203,-0.0192,-0.0141,-0.0126,-0.0123,-0.0108,-0.0135,-0.0068,-0.0061,-0.0055,-0.0029,-0.0019,-0.013,-0.013,-0.013,-0.013,0,-0.0432,-0.0426,-0.0423,-0.0397,-0.0377,-0.0367,-0.0326,-0.0301,-0.0281,-0.0253,-0.0203,-0.0171,-0.0135,-0.012,-0.0113,-0.0056,-0.0063,-0.0068,-0.0083,-0.0044,-0.0019,-0.001,-0.0127,-0.0128,-0.0128,-0.0129,0,0,-0.0471,-0.0439,-0.0439,-0.0433,-0.0387,-0.0374,-0.0333,-0.0288,-0.0261,-0.0218,-0.0176,-0.0123,-0.0099,-0.0082,-0.0058,-0.0019,0.0043,-0.0025,-0.0024,-0.0001,0.0123,0.0098,0.0106,0.0049,0.005,0.0052,0.0123,0,-0.0489,-0.0488,-0.0453,-0.0442,-0.0439,-0.0385,-0.035,-0.0301,-0.0254,-0.0203,-0.0143,-0.0102,-0.0086,-0.0065,-0.0017,0.0027,0.0067,0.0023,0.0084,0.0085,0.0057,0.0116,0.0057,0.013,0.0132,0.0134,0.0135,0,-0.0509,-0.0506,-0.051,-0.0472,-0.0463,-0.0443,-0.038,-0.0343,-0.0252,-0.0214,-0.0144,-0.0097,-0.0016,-0.002,0.0088,0.0057,0.0091,0.0123,0.0127,0.0098,0.0078,0.0083,0.0151,0.015,0.0149,0.0148,0.0147,0,-0.0563,-0.0541,-0.055,-0.0539,-0.049,-0.0473,-0.0438,-0.0356,-0.0321,-0.0221,-0.0181,-0.0079,-0.003,0.0041,0.0118,0.0104,0.0225,0.0212,0.0224,0.0222,0.0205,0.0197,0.0281,0.0281,0.028,0.028,0.028,0,-0.0595,-0.0601,-0.0582,-0.0587,-0.0588,-0.0528,-0.0502,-0.0445,-0.0359,-0.0315,-0.0199,-0.0138,-0.0014,0.0074,0.0132,0.0213,0.0239,0.0241,0.0247,0.0217,0.021,0.0212,0.0203,0.0283,0.0282,0.0282,0.0281,0,-0.0648,-0.0637,-0.0652,-0.0625,-0.0619,-0.0623,-0.0565,-0.0541,-0.0442,-0.0377,-0.0345,-0.0178,-0.0056,0.0062,0.0186,0.0223,0.0302,0.0317,0.0282,0.0282,0.0268,0.026,0.0344,0.0344,0.0344,0.0344,0.0344,0,-0.067,-0.0688,-0.0702,-0.0726,-0.0718,-0.071,-0.0704,-0.0608,-0.0572,-0.0406,-0.0379,-0.0221,-0.0114,0.0061,0.0179,0.0308,0.0309,0.0347,0.031,0.0281,0.0279,0.0271,0.0263,0.0344,0.0344,0.0344,0.0344,0,-0.0712,-0.0729,-0.0744,-0.0805,-0.0823,-0.0828,-0.0802,-0.0775,-0.065,-0.0561,-0.0403,-0.026,-0.0113,0.0045,0.0155,0.0239,0.0328,0.0347,0.0347,0.0312,0.0282,0.0277,0.027,0.0344,0.0344,0.0344,0.0344,0,-0.0746,-0.0782,-0.0821,-0.0863,-0.0909,-0.0927,-0.09,-0.0826,-0.076,-0.0559,-0.0514,-0.0302,-0.0162,0.0009,0.0108,0.0201,0.0208,0.0213,0.022,0.0222,0.0162,0.0104,0.0131,0,0,0,0,0,-0.0769,-0.0813,-0.0872,-0.0918,-0.0969,-0.0979,-0.0954,-0.0906,-0.078,-0.0691,-0.0591,-0.0446,-0.0221,-0.0095,-0.0013,0.0069,0.0195,0.0165,0.0195,0.0342,0.0343,0.0291,0,0,0,0,0,0,-0.0789,-0.085,-0.0879,-0.0955,-0.099,-0.1027,-0.1012,-0.0931,-0.0855,-0.0713,-0.0592,-0.0452,-0.0243,-0.0279,-0.0018,0.0021,0.0043,0.0297,0.0298,0.0342,0.0343,0.0343,0.029,0,0,0,0,0]}]]